Date String (YYYY-MM-DD hh:mm:ss) UTC,Instrument flags,Ambient pressure (hPa),Sample flow (lpm),Bypass flow (lpm),Sample temperature (°C),Ambient temperature (°C),ASC tube jacket temperature (°C),LED temperature (°C),Box temperature (°C),Sample RH (%),Span deviation,Mass concentration (μg/m³),Mass concentration (μg/m³),Mass concentration (μg/m³)
DateTimeUTC,F1_M11,P_M11,Q1_M11,Q2_M11,T1_M11,T2_M11,T3_M11,T4_M11,T5_M11,U1_M11,ZSPAN_M11,X0_M11,X2_M11,X1_M11
2021-10-03 04:00:00,,0832.1,4.98,0.00,30.2,29.2,00.0,39.2,32.0,17.0,0001.3,0012.47,0004.97,0004.34
2021-10-03 04:01:00,,0832.1,5.01,0.00,30.2,29.2,00.0,39.2,32.0,17.0,0001.1,0012.66,0004.99,0004.34
2021-10-03 04:02:00,,0832.0,4.99,0.00,30.2,29.3,00.0,39.2,32.0,17.0,0001.1,0012.07,0004.99,0004.35
2021-10-03 04:03:00,,0832.1,5.00,0.00,30.2,29.3,00.0,39.2,32.0,16.9,0001.3,0011.69,0004.96,0004.37
2021-10-03 04:04:00,,0832.1,5.00,0.00,30.2,29.3,00.0,39.2,32.0,16.9,0001.3,0013.02,0004.98,0004.38
2021-10-03 04:05:00,,0832.1,4.99,0.00,30.2,29.3,00.0,39.2,32.0,16.9,0001.6,0012.76,0004.97,0004.37
2021-10-03 04:06:00,,0832.1,5.01,0.00,30.2,29.3,00.0,39.3,32.0,17.1,0001.7,0012.13,0004.94,0004.36
2021-10-03 04:07:00,,0832.1,5.00,0.00,30.2,29.4,00.0,39.3,32.0,17.5,0002.1,0012.66,0004.95,0004.36
2021-10-03 04:08:00,,0832.1,4.99,0.00,30.2,29.4,00.0,39.3,32.0,17.1,0002.3,0012.75,0004.99,0004.36
2021-10-03 04:09:00,,0832.1,5.00,0.00,30.3,29.4,00.0,39.3,32.0,17.1,0002.3,0012.84,0004.97,0004.35
2021-10-03 04:10:00,,0832.1,5.01,0.00,30.3,29.4,00.0,39.3,32.1,17.2,0002.0,0012.89,0004.94,0004.35
2021-10-03 04:11:00,,0832.1,4.99,0.00,30.3,29.4,00.0,39.3,32.1,17.2,0001.2,0012.36,0004.94,0004.35
2021-10-03 04:12:00,,0832.1,5.02,0.00,30.3,29.5,00.0,39.3,32.1,17.3,0001.3,0012.13,0004.94,0004.36
2021-10-03 04:13:00,,0832.1,4.99,0.00,30.3,29.5,00.0,39.3,32.1,17.2,0001.5,0011.29,0004.90,0004.34
2021-10-03 04:14:00,,0832.1,5.00,0.00,30.3,29.5,00.0,39.4,32.1,17.0,0001.3,0011.62,0004.89,0004.32
2021-10-03 04:15:00,,0832.1,5.00,0.00,30.3,29.0,00.0,39.4,32.0,17.2,0001.5,0010.67,0004.85,0004.30
2021-10-03 04:16:00,,0832.1,5.00,0.00,30.2,26.8,00.0,39.3,31.4,17.9,0002.0,0010.27,0004.83,0004.30
2021-10-03 04:17:00,,0832.1,5.00,0.00,30.0,26.1,00.0,39.3,31.2,17.7,0002.0,0010.31,0004.85,0004.30
2021-10-03 04:18:00,,0832.1,5.01,0.00,29.9,26.3,00.0,39.2,31.2,17.6,0002.1,0009.93,0004.86,0004.30
2021-10-03 04:19:00,,0832.1,4.99,0.00,29.8,26.8,00.0,39.2,31.2,17.8,0002.2,0009.74,0004.86,0004.30
2021-10-03 04:20:00,,0832.1,5.01,0.00,29.8,27.2,00.0,39.1,31.3,17.7,0002.7,0009.75,0004.85,0004.32
2021-10-03 04:21:00,,0832.1,4.99,0.00,29.8,27.6,00.0,39.1,31.3,17.6,0002.9,0010.28,0004.89,0004.33
2021-10-03 04:22:00,,0832.1,5.00,0.00,29.8,27.8,00.0,39.0,31.4,17.4,0003.2,0010.30,0004.92,0004.34
2021-10-03 04:23:00,,0832.1,5.01,0.00,29.8,28.1,00.0,39.0,31.4,17.0,0003.1,0010.34,0004.90,0004.33
2021-10-03 04:24:00,,0832.1,4.99,0.00,29.8,28.2,00.0,39.0,31.4,16.7,0003.0,0010.42,0004.92,0004.32
2021-10-03 04:25:00,,0832.1,4.99,0.00,29.8,28.4,00.0,39.0,31.5,16.4,0002.8,0010.05,0004.91,0004.32
2021-10-03 04:26:00,,0832.1,5.00,0.00,29.8,28.5,00.0,39.0,31.5,16.0,0002.9,0009.53,0004.92,0004.30
2021-10-03 04:27:00,,0832.1,5.01,0.00,29.8,28.6,00.0,39.0,31.6,15.8,0002.7,0010.03,0004.92,0004.28
2021-10-03 04:28:00,,0832.1,4.99,0.00,29.8,28.7,00.0,39.0,31.6,15.6,0002.4,0010.41,0004.91,0004.24
2021-10-03 04:29:00,,0832.1,5.00,0.00,29.8,28.7,00.0,39.0,31.6,15.3,0001.6,0010.33,0004.88,0004.22
2021-10-03 04:30:00,,0832.1,5.00,0.00,29.9,28.8,00.0,39.0,31.6,14.8,0002.5,0010.28,0004.83,0004.21
2021-10-03 04:31:00,,0832.1,5.00,0.00,29.9,28.8,00.0,39.0,31.7,14.9,0000.0,0010.99,0004.84,0004.18
2021-10-03 04:32:00,,0832.2,4.99,0.00,29.9,28.9,00.0,39.0,31.7,15.1,0000.0,0010.93,0004.80,0004.15
2021-10-03 04:33:00,,0832.2,4.99,0.00,29.9,28.9,00.0,39.0,31.7,15.0,0000.0,0011.83,0004.79,0004.12
2021-10-03 04:34:00,,0832.2,5.01,0.00,29.9,28.9,00.0,39.0,31.7,15.3,0000.0,0011.91,0004.82,0004.11
2021-10-03 04:35:00,,0832.2,5.01,0.00,30.0,29.0,00.0,39.0,31.7,15.4,0000.0,0012.61,0004.84,0004.10
2021-10-03 04:36:00,,0832.2,5.00,0.00,30.0,29.0,00.0,39.0,31.8,15.5,0000.0,0012.78,0004.88,0004.11
2021-10-03 04:37:00,,0832.2,4.99,0.00,30.0,29.0,00.0,39.1,31.8,15.4,0000.0,0013.32,0004.90,0004.12
2021-10-03 04:38:00,,0832.2,5.01,0.00,30.0,29.1,00.0,39.1,31.8,15.5,0000.0,0013.08,0004.91,0004.14
2021-10-03 04:39:00,,0832.2,5.01,0.00,30.0,29.1,00.0,39.1,31.8,15.5,0000.0,0012.89,0004.95,0004.16
2021-10-03 04:40:00,,0832.2,4.99,0.00,30.0,29.1,00.0,39.1,31.9,15.8,0000.0,0013.08,0004.97,0004.18
2021-10-03 04:41:00,,0832.1,4.99,0.00,30.0,29.1,00.0,39.1,31.9,15.8,0000.0,0013.19,0005.00,0004.19
2021-10-03 04:42:00,,0832.2,5.00,0.00,30.1,29.2,00.0,39.1,31.9,16.0,0000.0,0012.46,0004.95,0004.19
2021-10-03 04:43:00,,0832.2,5.01,0.00,30.1,29.2,00.0,39.1,31.9,15.8,0000.0,0011.67,0004.94,0004.20
2021-10-03 04:44:00,,0832.2,5.00,0.00,30.1,29.2,00.0,39.1,31.9,15.4,0000.0,0010.75,0004.94,0004.22
2021-10-03 04:45:00,,0832.2,5.01,0.00,30.1,29.2,00.0,39.2,31.9,15.2,0000.0,0010.78,0004.97,0004.25
2021-10-03 04:46:00,,0832.3,4.99,0.00,30.1,29.2,00.0,39.2,31.9,15.4,0000.0,0010.71,0004.99,0004.27
2021-10-03 04:47:00,,0832.2,5.00,0.00,30.1,29.2,00.0,39.2,31.9,15.4,0000.0,0011.88,0004.99,0004.27
2021-10-03 04:48:00,,0832.3,5.00,0.00,30.1,29.2,00.0,39.2,32.0,15.5,0000.0,0012.05,0004.96,0004.26
2021-10-03 04:49:00,,0832.3,5.00,0.00,30.2,29.3,00.0,39.2,32.0,15.5,0000.0,0011.97,0004.96,0004.25
2021-10-03 04:50:00,,0832.2,4.99,0.00,30.2,29.3,00.0,39.2,31.9,15.4,0000.0,0012.15,0004.94,0004.24
2021-10-03 04:51:00,,0832.3,5.00,0.00,30.2,29.3,00.0,39.2,32.0,15.4,0000.0,0012.60,0004.94,0004.23
2021-10-03 04:52:00,,0832.3,5.00,0.00,30.2,29.3,00.0,39.2,32.0,15.4,0000.0,0013.04,0004.95,0004.23
2021-10-03 04:53:00,,0832.3,5.00,0.00,30.2,29.3,00.0,39.3,32.0,15.4,0000.6,0013.69,0004.98,0004.22
2021-10-03 04:54:00,,0832.2,5.00,0.00,30.2,29.3,00.0,39.3,32.0,15.5,0001.2,0013.94,0004.96,0004.21
2021-10-03 04:55:00,,0832.3,5.00,0.00,30.2,29.3,00.0,39.3,32.0,15.6,0000.8,0013.93,0004.95,0004.20
2021-10-03 04:56:00,,0832.2,5.01,0.00,30.2,29.3,00.0,39.3,32.0,15.6,0000.4,0013.46,0004.88,0004.18
2021-10-03 04:57:00,,0832.2,5.00,0.00,30.2,29.3,00.0,39.3,32.0,15.6,-000.0,0012.86,0004.81,0004.16
2021-10-03 04:58:00,,0832.3,4.99,0.00,30.2,29.3,00.0,39.3,32.0,15.5,0000.0,0011.58,0004.76,0004.15
2021-10-03 04:59:00,,0832.2,5.01,0.00,30.2,29.3,00.0,39.3,32.0,15.7,0000.7,0010.59,0004.77,0004.15
